Hourly Data Report for July 17, 2021

TORONTO CITY
ONTARIO
Current Station Operator: ECCC - MSC

43°40'00.000" N
79°24'00.000" W
112.50 m
6158355
71508
XTO

Download Data

Hourly Data (July 2021)
Hourly Data Report for July 17, 2021
TIME
LST
Temp Definition
°C
Dew Point Definition
°C
Rel Hum Definition
%
Precip. Amount Definition
mm

Wind Dir Definition
10's deg

Wind Spd Definition
km/h
Visibility Definition
km
Stn Press Definition
kPa
Hmdx Definition


Wind Chill Definition


Weather Definition


00:00 21.0 15.2 69 0.0       100.40 25   LegendNANA
01:00 20.9 16.1 74 0.0       100.39 26   LegendNANA
02:00 20.7 15.9 74 0.0       100.40 25   LegendNANA
03:00 20.6 15.9 74 0.0       100.39 25   LegendNANA
04:00 20.5 16.2 76 0.0       100.41 25   LegendNANA
05:00 19.8 16.7 82 0.1       100.47     LegendNANA
06:00 19.6 16.9 85 0.3       100.48     LegendNANA
07:00 19.4 17.7 90 0.4       100.47     LegendNANA
08:00 19.3 18.2 93 0.2       100.53     LegendNANA
09:00 19.2 17.9 92 0.6       100.51     LegendNANA
10:00 19.4 18.1 92 1.1       100.52     LegendNANA
11:00 19.7 18.0 90 0.4       100.56     LegendNANA
12:00 20.0 17.9 88 0.6       100.51 26   LegendNANA
13:00 20.0 17.1 83 0.5       100.49 25   LegendNANA
14:00 20.3 16.0 76 0.0       100.51 25   LegendNANA
15:00 20.4 15.7 74 0.0       100.47 25   LegendNANA
16:00 21.2 15.1 68 0.0       100.49 25   LegendNANA
17:00 21.2 13.1 60 0.0       100.47     LegendNANA
18:00 21.3 14.5 65 0.0       100.44 25   LegendNANA
19:00 21.4 15.0 67 0.0       100.45 25   LegendNANA
20:00 20.9 15.3 71 0.0       100.49 25   LegendNANA
21:00 20.9 15.4 71 0.0       100.52 25   LegendNANA
22:00 20.6 15.8 74 0.0       100.52 25   LegendNANA
23:00 20.8 16.0 74 0.0       100.51 25   LegendNANA

Notes on Data Quality.

Legend

  • E = Estimated
  • M = Missing
  • NA = Not Available*
  • [empty] = Indicates an unobserved value
Date modified: